Miscellaneous Local Product
Issued by NWS Hastings, NE

Home | Current Version | Previous Version | Graphics & Text | Print | Product List | Glossary On
Versions: 1 2 3 4 5 6 7 8 9 10 11 12 13 14 15 16 17 18 19 20 21 22 23 24 25 26 27 28 29 30 31 32 33 34 35 36 37 38 39 40 41 42 43 44 45 46 47 48 49 50
000
AXUS43 KGID 160902
MISGRI

GID CWA HOURLY WEATHER ROUNDUP
NATIONAL WEATHER SERVICE HASTINGS NE
400 AM CDT THU APR 16 2015

NOTE: "FAIR" INDICATES FEW OR NO CLOUDS BELOW 12,000 FEET WITH NO
SIGNIFICANT WEATHER AND/OR OBSTRUCTIONS TO VISIBILITY.

...SOUTH CENTRAL NEBRASKA...

CITY           SKY/WX    TMP DP  RH WIND       PRES   REMARKS
GRAND ISLAND   MOCLDY    50  48  93 E6        29.99F FOG
HASTINGS       CLOUDY    52  50  93 SE14      29.97F FOG
KEARNEY        CLOUDY    52  48  87 E10       29.98R THUNDER
ORD            LGT RAIN  52  48  86 SE6       29.97F
YORK           CLOUDY    52  50  93 SE13      30.00F FOG
AURORA         MOCLDY    51  50  95 E6        29.99F
LEXINGTON      RAIN      53  52  95 E15       29.96R
HOLDREGE       CLOUDY    52  50  93 E12       29.97R FOG
HEBRON         CLOUDY    54  50  87 E6        30.00S FOG

...NEBRASKA PANHANDLE...

CITY           SKY/WX    TMP DP  RH WIND       PRES   REMARKS
CHADRON        CLOUDY    40  36  86 W13       30.07S WCI  32
ALLIANCE       CLOUDY    39  37  92 N10       30.03F WCI  32
SCOTTSBLUFF    CLOUDY    37  36  96 NW10      30.06S WCI  30
SIDNEY         CLOUDY    37  34  89 N20G30    30.01S WCI  27

...WESTERN AND NORTH CENTRAL NEBRASKA...

CITY           SKY/WX    TMP DP  RH WIND       PRES   REMARKS
VALENTINE      CLOUDY    51  45  79 NW3       30.00R
AINSWORTH      CLOUDY    50  47  88 N5        29.98S
ONEILL         CLOUDY    50  48  93 SE6       29.98F
BROKEN BOW     CLOUDY    54  50  86 SW12G23   29.93R
IMPERIAL       CLOUDY    49  44  83 N10       29.95S
NORTH PLATTE   CLOUDY    48  46  93 CALM      29.95S
MCCOOK         CLOUDY    53  51  93 E14       29.93R FOG

...EASTERN NEBRASKA...

CITY           SKY/WX    TMP DP  RH WIND       PRES   REMARKS
NORFOLK        NOT AVBL
SO SIOUX CITY  CLOUDY    54  47  77 SE6       30.03F
TEKAMAH        CLOUDY    54  48  80 E5        30.03F
COLUMBUS       CLEAR     50  45  81 CALM      30.02F
ALBION         MOCLDY    48  45  89 CALM      30.01F FOG
OMAHA EPPLEY   CLOUDY    54  49  83 N3        30.03S
OFFUTT AFB     CLOUDY    54  50  86 NW3       30.02S
MILLARD        CLOUDY    56  49  79 CALM      30.03S
LINCOLN        CLOUDY    55  49  80 E6        30.03S
NEBRASKA CITY  CLOUDY    52  46  78 CALM      30.02F
BEATRICE       MOCLDY    54  50  86 NE8       30.01S
FALLS CITY     MOCLDY    49  46  90 NW3       30.02R

...NORTHERN KANSAS...

CITY           SKY/WX    TMP DP  RH WIND       PRES   REMARKS
GOODLAND       CLOUDY    51  50  96 NE7       29.92R FOG
HILL CITY      CLOUDY    54  50  86 E14       29.90S
NORTON         CLOUDY    54  48  82 E15G21    29.92R HAZE
PHILLIPSBURG   CLOUDY    57  54  88 E13       29.94S
SMITH CENTER   CLOUDY    54  50  87 E17       29.96R
BELOIT         CLOUDY    52  50  93 E9        29.96R
HAYS           CLOUDY    54  43  66 E9        29.87F
RUSSELL        CLOUDY    54  52  93 SE13      29.87S
CONCORDIA      CLOUDY    54  53  97 E6        29.99R
SALINA         MOCLDY    56  53  90 SE12      29.95S
TOPEKA         CLOUDY    54  52  93 E3        30.00S



USA.gov is the U.S. government's official web portal to all federal, state and local government web resources and services.